Location: Anan
(43.3550°N, 0.8171°E)
Time: 11:03:20
(UTC+00:00)

Meteor 2-12 Rocket - Pass Details

Date: 14 May 2026
Orbit: 936 x 957 km, 82.5° (Epoch: 8 June)

Event Time Altitude Azimuth Distance (km) Brightness Sun altitude
Rises 20:23:36 0° 352° (N) 3,611 8.3 -11.5°
Reaches altitude 10° 20:26:05 10° 353° (N) 2,665 7.5 -11.8°
Maximum altitude 20:32:12 81° 82° (E) 961 4.4 -12.7°
Enters shadow 20:38:06 11° 169° (S) 2,591 6.3 -13.5°
